Weather History for Alexandria, MN

Change the Weather History Date:

Sunday, December 16, 2012

  Actual Average Record
Temperature  
Mean Temperature 16 °F -  
Max Temperature 21 °F 22 °F 47 °F (1959)
Min Temperature 12 °F 5 °F -23 °F (1953)
Degree Days  
Heating Degree Days 48    
Moisture  
Dew Point 14 °F    
Average Humidity 90    
Maximum Humidity 93    
Minimum Humidity 84    
Precipitation  
Precipitation 0.00 in - - ()
Sea Level Pressure  
Sea Level Pressure 29.79 in    
Wind  
Wind Speed 12 mph (NNW)    
Max Wind Speed 17 mph    
Max Gust Speed 23 mph    
Visibility 7 miles    
Events      
Averages and records for this station are not official NWS values.
T = Trace of Precipitation, MM = Missing Value Source: NWS Daily Summary

Daily Weather History Graph

Daily Weather History Graph

Search for Another Location

Airport:

Trip Planner

Search our weather history database for the weather conditions in past years. The results will help you decide how hot, cold, wet, or windy it might be!

Date:

Astronomy

Dec. 16, 2012 Rise Set
Actual Time 7:57 AM CST 4:37 PM CST
Civil Twilight 7:22 AM CST 5:12 PM CST
Nautical Twilight 6:44 AM CST 5:50 PM CST
Astronomical Twilight 6:08 AM CST 6:26 PM CST
Moon 10:21 AM CST (12/16) 9:03 PM CST (12/16)
Length of Visible Light 9h 49m
Length of Day
8h 40m
Waxing Crescent, 16% of the Moon is Illuminated
Dec 16
Waxing Crescent
Dec 19
First Quarter
Dec 28
Full
Jan 4
Last Quarter
Jan 11
New

Hourly Weather History & Observations

Time (CST) Temp. Windchill Dew Point Humidity Pressure Visibility Wind Dir Wind Speed Gust Speed Precip Events Conditions
12:51 AM 21.2 °F 8.9 °F 19.4 °F 93% 29.64 in 4.0 mi NW 12.7 mph - N/A   Overcast
12:53 AM 21.0 °F 7.6 °F 19.0 °F 92% 29.70 in 4.0 mi NW 15.0 mph - N/A   Overcast
1:53 AM 17.1 °F 4.3 °F 14.0 °F 88% 29.72 in 7.0 mi NW 11.5 mph - N/A   Overcast
2:53 AM 15.1 °F -1.1 °F 12.0 °F 88% 29.73 in 7.0 mi NNW 17.3 mph - N/A   Overcast
3:29 AM 12.2 °F -2.5 °F 10.4 °F 92% 29.68 in 10.0 mi NNW 12.7 mph - N/A   Scattered Clouds
3:53 AM 12.9 °F -0.9 °F 9.0 °F 84% 29.75 in 10.0 mi NNW 11.5 mph - N/A   Clear
4:31 AM 12.2 °F -3.7 °F 8.6 °F 85% 29.69 in 10.0 mi NNW 15.0 mph - N/A   Partly Cloudy
4:53 AM 12.9 °F -2.8 °F 9.0 °F 84% 29.77 in 10.0 mi NNW 15.0 mph - N/A   Partly Cloudy
5:25 AM 12.2 °F -2.5 °F 8.6 °F 85% 29.71 in 10.0 mi NNW 12.7 mph - N/A   Mostly Cloudy
5:53 AM 12.9 °F -2.2 °F 10.0 °F 88% 29.78 in 10.0 mi NNW 13.8 mph - N/A   Overcast
6:53 AM 14.0 °F -0.2 °F 10.9 °F 88% 29.79 in 10.0 mi NNW 12.7 mph - N/A   Overcast
7:53 AM 14.0 °F -2.0 °F 10.9 °F 88% 29.80 in 8.0 mi NNW 16.1 mph - N/A   Overcast
8:53 AM 15.1 °F -0.1 °F 10.9 °F 84% 29.81 in 6.0 mi NNW 15.0 mph 23.0 mph N/A   Overcast
9:46 AM 15.8 °F -0.2 °F 12.2 °F 86% 29.75 in 6.0 mi NNW 17.3 mph 21.9 mph N/A   Overcast
9:53 AM 16.0 °F 0.6 °F 12.9 °F 88% 29.82 in 7.0 mi NNW 16.1 mph 21.9 mph N/A   Overcast
10:53 AM 17.1 °F 3.0 °F 15.1 °F 92% 29.83 in 6.0 mi NNW 13.8 mph - N/A   Overcast
11:53 AM 18.0 °F 5.4 °F 16.0 °F 92% 29.82 in 10.0 mi NNW 11.5 mph - N/A   Overcast
12:53 PM 19.0 °F 6.1 °F 17.1 °F 92% 29.81 in 10.0 mi NNW 12.7 mph - N/A   Overcast
1:53 PM 19.9 °F 8.6 °F 17.1 °F 89% 29.81 in 10.0 mi NNW 10.4 mph - N/A   Overcast
2:53 PM 19.9 °F 7.9 °F 17.1 °F 89% 29.81 in 10.0 mi NNW 11.5 mph - N/A   Overcast
4:53 PM 19.0 °F 9.0 °F 16.0 °F 88% 29.84 in 10.0 mi NW 8.1 mph - N/A   Overcast
5:53 PM 19.0 °F 8.2 °F 17.1 °F 92% 29.86 in 10.0 mi NNW 9.2 mph - N/A   Overcast
6:53 PM 19.0 °F 9.0 °F 17.1 °F 92% 29.86 in 10.0 mi NNE 8.1 mph - N/A   Overcast
7:53 PM 19.0 °F 9.0 °F 17.1 °F 92% 29.87 in 10.0 mi North 8.1 mph - N/A   Overcast
8:53 PM 19.0 °F 9.0 °F 17.1 °F 92% 29.88 in 8.0 mi NNW 8.1 mph - N/A   Overcast
9:53 PM 19.0 °F 10.0 °F 17.1 °F 92% 29.87 in 3.0 mi North 6.9 mph - N/A   Overcast
10:31 PM 19.4 °F 12.8 °F 17.6 °F 93% 29.78 in 2.0 mi North 4.6 mph - N/A   Overcast
10:44 PM 19.4 °F 14.3 °F 17.6 °F 93% 29.78 in 4.0 mi NW 3.5 mph - N/A   Overcast
10:53 PM 19.9 °F 12.1 °F 17.1 °F 89% 29.86 in 2.5 mi NNW 5.8 mph - N/A   Overcast
11:18 PM 19.4 °F 12.8 °F 17.6 °F 93% 29.78 in 1.2 mi NNW 4.6 mph - N/A   Overcast
11:53 PM 19.0 °F 13.9 °F 17.1 °F 92% 29.86 in 1.0 mi NE 3.5 mph - N/A   Mist